ASIASAT 5

Last updated on Sept. 30, 2020, 5:50 a.m. UTC

1 35696U 09042A   20273.87561106 -.00000325  00000-0  00000-0 0  9993
2 35696   0.0365 118.3191 0001614  41.3787 265.1341  1.00273275 40767
UTC
Height (km)
Latitude
Longitude
Inclination
Orbital Period
UTC large
Height (km)
Speed (km/s)
/
Latitude / Longitude
Inclination (degrees)
Orbital Period (minutes)
Azimuth
Elevation
Range (km)
Doppler Factor
iOS Compass Heading
iOS Angle

Next 30 passes for location: Hong Kong

Rise time Rise Azimuth (degrees) Set time Set Azimuth (degrees) Duration Max altitude (degrees)

No matching passes for this satellites